Location: Palmerston North
(40.3500°S, 175.6170°E)
Time: 16:51:23
(UTC+12:00)

Cosmos 2322 Rocket - Pass Details

Date: 24 January 2019
Orbit: 832 x 851 km, 71.0° (Epoch: 20 April)

Event Time Altitude Azimuth Distance (km) Brightness Sun altitude
Rises 21:11:34 0° 3° (N) 3,383 5.0 -5.5°
Reaches altitude 10° 21:14:10 10° 12° (NNE) 2,460 4.2 -6.0°
Maximum altitude 21:19:15 35° 76° (ENE) 1,341 2.8 -6.8°
Drops below altitude 10° 21:24:24 10° 140° (SE) 2,500 4.6 -7.6°
Sets 21:27:03 0° 148° (SSE) 3,446 5.4 -8.0°
